XE1DM Weather Reports


time (UTC)temp
C
wind
direction
speed
KPH
gust
KPH
rain 1hr
cm
rain 24hr
cm
rain mn
cm
humidity
%
barometer
mb
20260507011552 19 20 16.1 27.4 0.00 0.05 0.00 56 1008.5
20260507010048 20 326 8.0 27.4 0.00 0.05 0.00 49 1009.6
20260507004547 21 216 6.4 25.7 0.00 0.41 0.00 47 1008.8
20260507003047 21 78 22.5 35.4 0.00 0.41 0.00 40 1007.2
20260507001547 21 332 11.3 27.4 0.00 0.41 0.00 44 1007.3
20260507000045 21 13 9.7 35.4 0.00 0.41 0.00 46 1006.7
20260506234554 21 18 16.1 30.6 0.00 0.41 0.00 48 1006.7
20260506233050 21 59 11.3 30.6 0.00 0.41 0.00 48 1006.5
20260506231552 21 64 16.1 29.0 0.00 0.41 0.00 50 1006.0
20260506230044 22 79 17.7 32.2 0.00 0.41 0.00 50 1006.0
20260506224543 22 66 11.3 27.4 0.00 0.41 0.00 50 1005.7
20260506223043 22 41 16.1 30.6 0.00 0.41 0.00 50 1005.8
20260506221542 22 28 6.4 24.1 0.00 0.41 0.00 50 1005.8
20260506220043 23 39 9.7 25.7 0.00 0.41 0.00 49 1005.6
20260506214545 23 8 8.0 24.1 0.00 0.41 0.00 48 1005.6
20260506213042 22 61 11.3 24.1 0.00 0.41 0.00 46 1005.9
20260506211539 22 45 11.3 19.3 0.00 0.41 0.00 47 1006.1
20260506210038 22 56 8.0 24.1 0.00 0.41 0.00 52 1006.3
20260506204540 21 68 8.0 22.5 0.00 0.41 0.00 59 1006.4
20260506203040 23 103 11.3 27.4 0.00 0.41 0.00 52 1006.7
20260506201539 27 162 8.0 16.1 0.00 0.41 0.00 35 1006.5
20260506200039 27 291 0.0 16.1 0.00 0.41 0.00 33 1006.6
20260506194529 27 31 3.2 14.5 0.00 0.41 0.00 33 1006.8
20260506193026 27 97 3.2 11.3 0.00 0.41 0.00 32 1007.2
20260506191524 28 172 3.2 11.3 0.00 0.41 0.00 33 1007.5
20260506190020 26 123 3.2 9.7 0.00 0.41 0.00 35 1007.7
20260506184518 26 291 6.4 11.3 0.00 0.41 0.00 37 1007.8
20260506183016 26 313 1.6 9.7 0.00 0.41 0.00 39 1008.1
20260506181515 27 169 6.4 12.9 0.00 0.41 0.00 37 1008.3
20260506180014 26 156 3.2 11.3 0.00 0.41 0.00 38 1008.6
20260506174509 25 160 1.6 11.3 0.00 0.41 0.00 37 1008.9
20260506173016 25 220 4.8 16.1 0.00 0.41 0.00 37 1008.9
20260506171506 25 224 3.2 14.5 0.00 0.41 0.00 39 1009.0
20260506170004 25 268 4.8 11.3 0.00 0.41 0.00 39 1009.4
20260506164503 24 134 6.4 14.5 0.00 0.41 0.00 43 1009.6
20260506163107 23 231 3.2 12.9 0.00 0.41 0.00 43 1009.7
20260506161641 23 245 1.6 9.7 0.00 0.41 0.00 43 1009.7
20260506160108 22 247 4.8 11.3 0.00 0.41 0.00 45 1009.7
20260506154555 22 216 0.0 4.8 0.00 0.41 0.00 46 1009.8
20260506153057 21 206 1.6 6.4 0.00 0.41 0.00 47 1010.0
20260506151551 21 214 0.0 6.4 0.00 0.41 0.00 47 1010.1
20260506150050 21 131 0.0 6.4 0.00 0.41 0.00 48 1010.2
20260506144546 21 59 0.0 4.8 0.00 0.41 0.00 51 1010.1
20260506143045 20 18 1.6 4.8 0.00 0.41 0.00 53 1010.0
20260506141539 18 15 0.0 1.6 0.00 0.41 0.00 63 1010.1
20260506140037 17 16 0.0 3.2 0.00 0.41 0.00 63 1010.1
20260506134535 17 16 0.0 3.2 0.00 0.41 0.00 64 1009.9
20260506133033 17 16 0.0 1.6 0.00 0.41 0.00 65 1009.8
20260506131544 16 16 0.0 3.2 0.00 0.41 0.00 68 1009.7
20260506130035 15 16 0.0 0.0 0.00 0.41 0.00 69 1009.6
20260506124530 14 16 0.0 3.2 0.00 0.41 0.00 69 1009.4
20260506123029 14 16 0.0 3.2 0.00 0.41 0.00 68 1009.5
20260506121528 14 16 0.0 3.2 0.00 0.41 0.00 69 1009.6
20260506120029 13 16 3.2 4.8 0.00 0.41 0.00 69 1009.3
20260506114533 13 15 0.0 3.2 0.00 0.41 0.00 71 1009.3
20260506113025 13 15 0.0 3.2 0.00 0.41 0.00 70 1009.1
20260506111524 14 15 1.6 4.8 0.00 0.41 0.00 69 1009.0
20260506110025 14 15 3.2 4.8 0.00 0.41 0.00 71 1009.0
20260506104522 14 15 3.2 6.4 0.00 0.41 0.00 70 1009.0
20260506103022 14 15 3.2 6.4 0.00 0.41 0.00 70 1008.8
20260506101538 14 15 3.2 4.8 0.00 0.41 0.00 70 1008.9
20260506100020 14 15 1.6 4.8 0.00 0.41 0.00 70 1008.8
20260506094523 14 14 1.6 4.8 0.00 0.41 0.00 70 1008.7
20260506093021 14 14 0.0 3.2 0.00 0.41 0.00 70 1008.8
20260506091517 14 14 1.6 3.2 0.00 0.41 0.00 70 1008.6
20260506090015 14 14 0.0 1.6 0.00 0.41 0.00 71 1008.5
20260506084514 13 14 1.6 4.8 0.00 0.41 0.00 71 1008.5
20260506083012 14 14 1.6 3.2 0.00 0.41 0.00 71 1008.6
20260506081510 14 14 0.0 3.2 0.00 0.41 0.00 70 1008.7
20260506073002 15 14 1.6 4.8 0.00 0.41 0.00 67 1009.1
20260506071601 15 14 0.0 3.2 0.00 0.41 0.00 65 1009.3
20260506070103 15 14 1.6 6.4 0.00 0.41 0.00 65 1009.3
20260506061553 16 88 1.6 4.8 0.00 0.41 0.00 66 1009.7
20260506044638 17 141 4.8 12.9 0.00 0.41 0.41 63 1009.9
20260506043047 17 85 1.6 11.3 0.00 0.41 0.41 66 1009.8
20260506041558 17 133 1.6 9.7 0.00 0.41 0.41 66 1009.6
20260506040045 17 85 4.8 12.9 0.00 0.41 0.41 64 1009.1
20260506034620 17 74 4.8 24.1 0.00 0.41 0.41 61 1008.9
20260506033044 17 341 12.9 25.7 0.00 0.41 0.41 64 1008.4
20260506031544 17 312 12.9 30.6 0.00 0.41 0.41 58 1007.9
20260506030043 16 335 12.9 37.0 0.00 0.41 0.41 64 1007.8
20260506024542 17 322 16.1 29.0 0.03 0.41 0.41 63 1008.4
20260506023102 18 354 3.2 16.1 0.03 0.41 0.41 58 1008.1
20260506021541 19 37 16.1 33.8 0.05 0.41 0.41 48 1008.0
20260506020044 19 69 12.9 32.2 0.05 0.41 0.41 52 1008.2
20260506014540 17 326 9.7 17.7 0.05 0.38 0.38 62 1008.0
20260506013041 17 4 9.7 19.3 0.28 0.38 0.38 60 1007.8